This demonstration page uses our WeatherBlox Daily Observations layout. Learn more.

Left ArrowRight Arrow

38.20091, -84.87328

Hourly Observations for August 8, 2019

Temp ( °F °C ) Dew Point ( °F °C ) Humidity (%) Winds ( mph kmh ) Pressure ( in mb ) Visibility ( mi km ) Precip ( " mm )
12:53 am 00:53 Clear 69 20.6 66 18.9 90 90 Calm 29.86 1011 10 16 0.00 0.00
1:53 am 01:53 Clear 68 20 65 18.3 90 90 Calm 29.86 1011 10 16 0.00 0.00
2:53 am 02:53 Clear 68 20 65 18.3 90 90 Calm 29.86 1011 9 14 0.00 0.00
3:53 am 03:53 Clear 67 19.4 64 17.8 91 91 Calm 29.85 1011 9 14 0.00 0.00
4:53 am 04:53 Clear 65 18.3 63 17.2 93 93 Calm 29.86 1011 8 13 0.00 0.00
5:53 am 05:53 Clear 65 18.3 63 17.2 93 93 SW 5 7 29.86 1011 7 11 0.00 0.00
6:53 am 06:53 Sunny with Mist and Fog 65 18.3 63 17.2 93 93 Calm 29.87 1012 6 10 0.00 0.00
7:53 am 07:53 Sunny with Mist and Fog 68 20 65 18.3 90 90 WSW 5 7 29.89 1012 3 5 0.00 0.00
8:00 am 08:00 Sunny with Mist and Fog 68 20 66 18.9 93 93 WSW 5 7 29.90 1013 3 4 0.00 0.00
8:35 am 08:35 Sunny with Mist and Fog 71 21.7 68 20 90 90 SW 5 7 29.90 1012 3 5 0.00 0.00
8:53 am 08:53 Hazy 73 22.8 68 20 84 84 WSW 3 6 29.90 1013 4 6 0.00 0.00
9:53 am 09:53 Hazy 79 26.1 67 19.4 67 67 W 6 9 29.90 1013 5 8 0.00 0.00
10:53 am 10:53 Hazy 81 27.2 66 18.9 61 61 WSW 8 13 29.90 1013 3 5 0.00 0.00
12:44 pm 12:44 Hazy 84 28.9 65 18.3 53 53 VRB 7 11 29.88 1012 3 4 0.00 0.00
12:51 pm 12:51 Hazy 84 29 66 19 55 55 WSW 9 15 29.87 1011 4 6 0.00 0.00
1:53 pm 13:53 Hazy 87 30.6 65 18.3 48 48 WSW 12 19 29.89 1012 3 5 0.00 0.00
2:02 pm 14:02 Hazy 86 30 65 18.3 49 49 W 8 13 29.87 1012 2 3 0.00 0.00
2:11 pm 14:11 Hazy 88 31.1 66 18.9 48 48 SW 12 19 29.87 1012 3 5 0.00 0.00
2:53 pm 14:53 Partly Cloudy 87 30.6 66 18.9 50 50 WNW 7 11 29.88 1012 10 16 0.00 0.00
3:53 pm 15:53 Partly Cloudy 88 31.1 67 19.4 50 50 WSW 12 19 29.87 1012 10 16 0.00 0.00
4:53 pm 16:53 Partly Cloudy 87 30.6 67 19.4 51 51 W 6 9 29.88 1012 10 16 0.00 0.00
5:53 pm 17:53 Mostly Sunny 88 31.1 65 18.3 46 46 WSW 7 11 29.87 1011 10 16 0.00 0.00
6:53 pm 18:53 Sunny 87 30.6 64 17.8 46 46 WSW 7 11 29.86 1011 10 16 0.00 0.00
7:53 pm 19:53 Sunny 84 28.9 66 18.9 55 55 W 3 6 29.85 1011 10 16 0.00 0.00
8:53 pm 20:53 Clear 79 26.1 67 19.4 67 67 WSW 5 7 29.87 1012 10 16 0.00 0.00
9:53 pm 21:53 Clear 79 26.1 65 18.3 62 62 WSW 6 9 29.89 1012 10 16 0.00 0.00
10:53 pm 22:53 Clear 76 24.4 66 18.9 72 72 SW 7 11 29.88 1012 10 16 0.00 0.00
11:53 pm 23:53 Clear 74 23.3 66 18.9 76 76 WSW 6 9 29.89 1012 10 16 0.00 0.00

Powered by AerisWeather